JNA501 RKSS-RKPC

Flight info

Callsign JNA501
Flight time N/A
Altitude 26000
Route DCT BULTI Y711 DOTOL DCT
Aircraft B738/M-VGD/A

Departure

Time 2026-05-01 10:56
Airport Gimpo International Airport (RKSS)

Arrival

Time N/A
Airport Jeju International Airport (RKPC)
Time Latitude Longitude Altitude Speed Heading
2026-05-01 10:31 37.55688 126.80422 66 ft 0 kts 45°
2026-05-01 10:46 37.55686 126.80419 66 ft 3 kts 45°
2026-05-01 10:46 37.55671 126.80401 60 ft 3 kts 45°
2026-05-01 10:46 37.55657 126.80383 64 ft 3 kts 46°
2026-05-01 10:46 37.55643 126.80364 61 ft 3 kts 48°
2026-05-01 10:47 37.55630 126.80345 57 ft 3 kts 54°
2026-05-01 10:47 37.55622 126.80329 60 ft 1 kts 74°
2026-05-01 10:47 37.55621 126.80316 60 ft 1 kts 104°
2026-05-01 10:47 37.55625 126.80305 57 ft 1 kts 125°
2026-05-01 10:48 37.55630 126.80296 65 ft 1 kts 131°
2026-05-01 10:48 37.55636 126.80288 57 ft 1 kts 134°
2026-05-01 10:50 37.55631 126.80294 65 ft 3 kts 134°
2026-05-01 10:51 37.55603 126.80320 61 ft 6 kts 148°
2026-05-01 10:51 37.55566 126.80342 62 ft 6 kts 154°
2026-05-01 10:51 37.55532 126.80370 62 ft 6 kts 137°
2026-05-01 10:51 37.55502 126.80408 59 ft 7 kts 135°
2026-05-01 10:52 37.55464 126.80457 65 ft 9 kts 135°
2026-05-01 10:52 37.55409 126.80526 59 ft 12 kts 135°
2026-05-01 10:52 37.55347 126.80603 59 ft 12 kts 135°
2026-05-01 10:52 37.55287 126.80678 62 ft 12 kts 135°
2026-05-01 10:53 37.55229 126.80752 61 ft 12 kts 135°
2026-05-01 10:53 37.55172 126.80824 62 ft 12 kts 135°
2026-05-01 10:53 37.55100 126.80914 61 ft 16 kts 135°
2026-05-01 10:53 37.55033 126.80988 60 ft 10 kts 165°
2026-05-01 10:54 37.54973 126.80945 65 ft 10 kts 225°
2026-05-01 10:54 37.54923 126.80882 61 ft 10 kts 225°
2026-05-01 10:54 37.54874 126.80820 63 ft 10 kts 225°
2026-05-01 10:54 37.54826 126.80759 59 ft 10 kts 225°
2026-05-01 10:55 37.54797 126.80694 62 ft 8 kts 290°
2026-05-01 10:55 37.54810 126.80671 67 ft 0 kts 313°
2026-05-01 10:55 37.54835 126.80639 64 ft 17 kts 314°
2026-05-01 10:56 37.55103 126.80302 66 ft 91 kts 315°
2026-05-01 10:56 37.55699 126.79553 63 ft 151 kts 315°
2026-05-01 10:56 37.56477 126.78573 700 ft 152 kts 309°
2026-05-01 10:56 37.57179 126.77622 1604 ft 146 kts 311°
2026-05-01 10:57 37.57879 126.76697 2531 ft 151 kts 313°
2026-05-01 10:57 37.58615 126.75723 3402 ft 156 kts 313°
2026-05-01 10:57 37.59418 126.74638 3885 ft 186 kts 314°
2026-05-01 10:57 37.60384 126.73342 4169 ft 219 kts 314°
2026-05-01 10:58 37.61441 126.71781 4396 ft 250 kts 303°
2026-05-01 10:58 37.62096 126.69679 4910 ft 265 kts 281°
2026-05-01 10:58 37.61982 126.67345 5002 ft 274 kts 250°
2026-05-01 10:58 37.60880 126.65388 4999 ft 277 kts 224°
2026-05-01 10:59 37.59508 126.63745 5006 ft 275 kts 225°
2026-05-01 10:59 37.58159 126.62028 5009 ft 274 kts 227°
2026-05-01 10:59 37.56820 126.60311 5000 ft 275 kts 220°
2026-05-01 10:59 37.55123 126.59227 5072 ft 277 kts 193°
2026-05-01 11:00 37.53201 126.58897 5627 ft 280 kts 185°
2026-05-01 11:00 37.51282 126.58665 6694 ft 276 kts 184°
2026-05-01 11:00 37.49377 126.58432 7650 ft 274 kts 184°
2026-05-01 11:00 37.47479 126.58189 8605 ft 274 kts 184°
2026-05-01 11:01 37.45585 126.57940 9546 ft 275 kts 184°
2026-05-01 11:01 37.43675 126.57684 10343 ft 279 kts 185°
2026-05-01 11:01 37.41661 126.57415 10609 ft 303 kts 185°
2026-05-01 11:01 37.39481 126.57424 10793 ft 326 kts 169°
2026-05-01 11:02 37.37229 126.58076 11291 ft 337 kts 166°
2026-05-01 11:02 37.34938 126.58749 11887 ft 330 kts 167°
2026-05-01 11:02 37.32755 126.59358 11971 ft 314 kts 167°
2026-05-01 11:02 37.30702 126.59968 12049 ft 299 kts 165°
2026-05-01 11:03 37.28747 126.60626 12243 ft 284 kts 165°
2026-05-01 11:03 37.26823 126.61277 12316 ft 291 kts 165°
2026-05-01 11:03 37.24808 126.61951 13052 ft 297 kts 165°
2026-05-01 11:03 37.22803 126.62615 13947 ft 300 kts 166°
2026-05-01 11:04 37.20808 126.63273 14796 ft 301 kts 166°
2026-05-01 11:04 37.18778 126.63942 15521 ft 302 kts 166°
2026-05-01 11:04 37.16750 126.64609 15859 ft 302 kts 166°
2026-05-01 11:04 37.14714 126.65279 15888 ft 303 kts 166°
2026-05-01 11:05 37.12671 126.65950 15899 ft 303 kts 166°
2026-05-01 11:05 37.10630 126.66620 15911 ft 303 kts 166°
2026-05-01 11:05 37.08591 126.67291 15911 ft 303 kts 166°
2026-05-01 11:05 37.06554 126.67959 15909 ft 303 kts 166°
2026-05-01 11:06 37.04503 126.68636 16018 ft 306 kts 166°
2026-05-01 11:06 37.02429 126.69315 16692 ft 309 kts 167°
2026-05-01 11:06 37.00353 126.69992 17621 ft 307 kts 167°
2026-05-01 11:07 36.96234 126.71344 19187 ft 311 kts 167°
2026-05-01 11:07 36.94160 126.72026 20151 ft 301 kts 168°
2026-05-01 11:07 36.92175 126.72680 21363 ft 288 kts 168°
2026-05-01 11:07 36.90261 126.73316 22307 ft 284 kts 167°
2026-05-01 11:08 36.88371 126.74155 22935 ft 291 kts 162°
2026-05-01 11:08 36.86486 126.75136 23551 ft 296 kts 161°
2026-05-01 11:08 36.82681 126.77157 24694 ft 300 kts 162°
2026-05-01 11:09 36.80702 126.78186 24850 ft 316 kts 163°
2026-05-01 11:09 36.78618 126.79258 24952 ft 332 kts 162°
2026-05-01 11:09 36.76427 126.80379 25060 ft 348 kts 162°
2026-05-01 11:10 36.71689 126.82526 25240 ft 373 kts 174°
2026-05-01 11:10 36.69101 126.82747 25358 ft 383 kts 181°
2026-05-01 11:10 36.66388 126.82798 25505 ft 393 kts 182°
2026-05-01 11:10 36.63639 126.82840 25868 ft 397 kts 182°
2026-05-01 11:11 36.60866 126.82910 25901 ft 398 kts 181°
2026-05-01 11:11 36.58105 126.83003 25912 ft 399 kts 181°
2026-05-01 11:11 36.55299 126.83104 25923 ft 408 kts 181°
2026-05-01 11:11 36.52426 126.83218 25922 ft 416 kts 181°
2026-05-01 11:12 36.49504 126.83342 25934 ft 423 kts 181°
2026-05-01 11:12 36.46531 126.83469 25932 ft 431 kts 181°
2026-05-01 11:12 36.43508 126.83596 25936 ft 437 kts 181°
2026-05-01 11:12 36.40449 126.83722 25931 ft 442 kts 181°
2026-05-01 11:13 36.37397 126.83751 25929 ft 444 kts 185°
2026-05-01 11:13 36.34313 126.83446 25937 ft 445 kts 188°
2026-05-01 11:13 36.32230 126.83190 25930 ft 445 kts 188°
2026-05-01 11:13 36.28149 126.82677 25931 ft 445 kts 188°
2026-05-01 11:14 36.25064 126.82307 25936 ft 445 kts 188°
2026-05-01 11:14 36.21978 126.81956 25941 ft 445 kts 188°
2026-05-01 11:14 36.18886 126.81614 25945 ft 445 kts 188°
2026-05-01 11:14 36.15793 126.81275 25947 ft 446 kts 188°
2026-05-01 11:15 36.12697 126.80937 25955 ft 446 kts 188°
2026-05-01 11:15 36.10649 126.80713 25960 ft 447 kts 188°
2026-05-01 11:15 36.06500 126.80262 25965 ft 447 kts 188°
2026-05-01 11:15 36.03399 126.79924 25964 ft 447 kts 188°
2026-05-01 11:16 36.01345 126.79701 25961 ft 448 kts 188°
2026-05-01 11:16 35.98244 126.79363 25975 ft 448 kts 188°
2026-05-01 11:16 35.95139 126.79026 25975 ft 448 kts 188°
2026-05-01 11:16 35.92038 126.78689 25957 ft 448 kts 188°